| time (UTC) | temp F | wind direction | speed MPH | gust MPH | rain 1hr in | rain 24hr in | rain mn in | humidity % | barometer mb |
| 20260503032411 | 38 | 136 | 2.0 | 3.0 | 0.00 | 0.00 | 0.00 | 84 | 1014.5 |
| 20260503031908 | 38 | 127 | 2.0 | 2.0 | 0.00 | 0.00 | 0.00 | 85 | 1014.5 |
| 20260503031406 | 37 | 142 | 2.0 | 3.0 | 0.00 | 0.00 | 0.00 | 84 | 1014.6 |
| 20260503030902 | 37 | 128 | 2.0 | 3.0 | 0.00 | 0.00 | 0.00 | 83 | 1014.6 |
| 20260503030359 | 37 | 143 | 2.0 | 3.0 | 0.00 | 0.00 | 0.00 | 83 | 1014.6 |
| 20260503025855 | 38 | 136 | 2.0 | 3.0 | 0.00 | 0.00 | 0.00 | 84 | 1014.6 |
| 20260503025353 | 37 | 128 | 2.0 | 2.0 | 0.00 | 0.00 | 0.00 | 83 | 1014.7 |
| 20260503024850 | 37 | 127 | 2.0 | 3.0 | 0.00 | 0.00 | 0.00 | 80 | 1014.7 |
| 20260503024346 | 37 | 134 | 3.0 | 3.0 | 0.00 | 0.00 | 0.00 | 79 | 1014.6 |
| 20260503023843 | 37 | 136 | 2.0 | 3.0 | 0.00 | 0.00 | 0.00 | 78 | 1014.7 |
| 20260503023341 | 38 | 138 | 2.0 | 3.0 | 0.00 | 0.00 | 0.00 | 78 | 1014.8 |
| 20260503022838 | 37 | 150 | 2.0 | 2.0 | 0.00 | 0.00 | 0.00 | 80 | 1014.8 |
| 20260503022337 | 37 | 138 | 2.0 | 2.0 | 0.00 | 0.00 | 0.00 | 80 | 1014.8 |
| 20260503021834 | 37 | 131 | 2.0 | 3.0 | 0.00 | 0.00 | 0.00 | 79 | 1014.9 |
| 20260503021330 | 37 | 139 | 2.0 | 2.0 | 0.00 | 0.00 | 0.00 | 76 | 1014.9 |
| 20260503020828 | 37 | 133 | 2.0 | 3.0 | 0.00 | 0.00 | 0.00 | 74 | 1014.9 |
| 20260503020326 | 38 | 131 | 2.0 | 3.0 | 0.00 | 0.00 | 0.00 | 73 | 1014.6 |
| 20260503015822 | 39 | 130 | 2.0 | 2.0 | 0.00 | 0.00 | 0.00 | 73 | 1014.6 |
| 20260503015319 | 39 | 126 | 1.0 | 2.0 | 0.00 | 0.00 | 0.00 | 72 | 1014.7 |
| 20260503014815 | 39 | 130 | 2.0 | 3.0 | 0.00 | 0.00 | 0.00 | 69 | 1014.6 |
| 20260503014313 | 40 | 129 | 2.0 | 2.0 | 0.00 | 0.00 | 0.00 | 69 | 1014.4 |
| 20260503013810 | 40 | 119 | 2.0 | 3.0 | 0.00 | 0.00 | 0.00 | 67 | 1014.5 |
| 20260503013307 | 41 | 132 | 2.0 | 3.0 | 0.00 | 0.00 | 0.00 | 66 | 1014.6 |
| 20260503012804 | 42 | 114 | 2.0 | 3.0 | 0.00 | 0.00 | 0.00 | 64 | 1014.4 |
| 20260503012301 | 42 | 140 | 2.0 | 2.0 | 0.00 | 0.00 | 0.00 | 62 | 1014.5 |
| 20260503011758 | 42 | 88 | 2.0 | 3.0 | 0.00 | 0.00 | 0.00 | 64 | 1014.5 |
| 20260503011255 | 42 | 123 | 2.0 | 3.0 | 0.00 | 0.00 | 0.00 | 62 | 1014.4 |
| 20260503010751 | 43 | 147 | 2.0 | 3.0 | 0.00 | 0.00 | 0.00 | 61 | 1014.4 |
| 20260503010249 | 43 | 136 | 2.0 | 3.0 | 0.00 | 0.00 | 0.00 | 59 | 1014.3 |
| 20260503005746 | 44 | 129 | 2.0 | 3.0 | 0.00 | 0.00 | 0.00 | 57 | 1014.5 |
| 20260503005243 | 44 | 28 | 0.0 | 2.0 | 0.00 | 0.00 | 0.00 | 54 | 1014.2 |
| 20260503004739 | 44 | 112 | 0.0 | 2.0 | 0.00 | 0.00 | 0.00 | 54 | 1014.4 |
| 20260503004237 | 44 | 141 | 2.0 | 3.0 | 0.00 | 0.00 | 0.00 | 55 | 1014.3 |
| 20260503003734 | 44 | 87 | 2.0 | 2.0 | 0.00 | 0.00 | 0.00 | 54 | 1014.4 |
| 20260503003231 | 44 | 149 | 2.0 | 3.0 | 0.00 | 0.00 | 0.00 | 56 | 1014.3 |
| 20260503002728 | 44 | 158 | 1.0 | 4.0 | 0.00 | 0.00 | 0.00 | 54 | 1014.2 |
| 20260503002225 | 44 | 97 | 1.0 | 3.0 | 0.00 | 0.00 | 0.00 | 58 | 1014.1 |
| 20260503001720 | 44 | 125 | 2.0 | 3.0 | 0.00 | 0.00 | 0.00 | 59 | 1014.0 |
| 20260503001217 | 44 | 129 | 2.0 | 3.0 | 0.00 | 0.00 | 0.00 | 60 | 1014.1 |
| 20260503000715 | 44 | 111 | 2.0 | 3.0 | 0.00 | 0.00 | 0.00 | 59 | 1014.1 |
| 20260503000212 | 44 | 134 | 3.0 | 3.0 | 0.00 | 0.00 | 0.00 | 59 | 1014.2 |
| 20260502235709 | 44 | 144 | 2.0 | 3.0 | 0.00 | 0.00 | 0.00 | 59 | 1014.1 |
| 20260502235207 | 44 | 117 | 1.0 | 3.0 | 0.00 | 0.00 | 0.00 | 59 | 1014.1 |
| 20260502234703 | 44 | 119 | 2.0 | 2.0 | 0.00 | 0.00 | 0.00 | 59 | 1013.9 |
| 20260502234200 | 44 | 104 | 2.0 | 4.0 | 0.00 | 0.00 | 0.00 | 58 | 1014.1 |
| 20260502233656 | 44 | 107 | 2.0 | 3.0 | 0.00 | 0.00 | 0.00 | 59 | 1014.0 |
| 20260502233153 | 45 | 113 | 2.0 | 4.0 | 0.00 | 0.00 | 0.00 | 59 | 1014.0 |
| 20260502232649 | 45 | 120 | 2.0 | 2.0 | 0.00 | 0.00 | 0.00 | 58 | 1013.8 |
| 20260502232147 | 45 | 102 | 2.0 | 3.0 | 0.00 | 0.00 | 0.00 | 58 | 1014.0 |
| 20260502231643 | 45 | 86 | 3.0 | 4.0 | 0.00 | 0.00 | 0.00 | 56 | 1014.3 |
| 20260502231141 | 45 | 123 | 2.0 | 5.0 | 0.00 | 0.00 | 0.00 | 56 | 1014.0 |
| 20260502230639 | 45 | 128 | 3.0 | 4.0 | 0.00 | 0.00 | 0.00 | 57 | 1014.1 |
| 20260502230137 | 45 | 109 | 2.0 | 3.0 | 0.00 | 0.00 | 0.00 | 55 | 1014.0 |
| 20260502225632 | 45 | 100 | 2.0 | 2.0 | 0.00 | 0.00 | 0.00 | 53 | 1014.0 |
| 20260502225131 | 46 | 62 | 2.0 | 4.0 | 0.00 | 0.00 | 0.00 | 52 | 1014.0 |
| 20260502224626 | 46 | 352 | 2.0 | 6.0 | 0.00 | 0.00 | 0.00 | 47 | 1014.0 |
| 20260502224123 | 46 | 342 | 2.0 | 4.0 | 0.00 | 0.00 | 0.00 | 48 | 1013.9 |
| 20260502223621 | 46 | 60 | 1.0 | 6.0 | 0.00 | 0.00 | 0.00 | 46 | 1013.9 |
| 20260502223119 | 46 | 354 | 4.0 | 5.0 | 0.00 | 0.00 | 0.00 | 44 | 1013.9 |
| 20260502222616 | 46 | 53 | 2.0 | 3.0 | 0.00 | 0.00 | 0.00 | 45 | 1013.8 |
| 20260502222112 | 46 | 289 | 2.0 | 4.0 | 0.00 | 0.00 | 0.00 | 46 | 1013.9 |
| 20260502221608 | 46 | 73 | 0.0 | 10.0 | 0.00 | 0.00 | 0.00 | 45 | 1013.9 |
| 20260502221106 | 47 | 8 | 2.0 | 5.0 | 0.00 | 0.00 | 0.00 | 48 | 1013.9 |
| 20260502220601 | 46 | 62 | 1.0 | 2.0 | 0.00 | 0.00 | 0.00 | 52 | 1013.9 |
| 20260502220058 | 46 | 82 | 3.0 | 6.0 | 0.00 | 0.00 | 0.00 | 50 | 1013.8 |
| 20260502215555 | 46 | 81 | 0.0 | 7.0 | 0.00 | 0.00 | 0.00 | 50 | 1013.7 |
| 20260502215052 | 46 | 40 | 2.0 | 4.0 | 0.00 | 0.00 | 0.00 | 50 | 1013.7 |
| 20260502214549 | 46 | 120 | 2.0 | 4.0 | 0.00 | 0.00 | 0.00 | 53 | 1013.9 |
| 20260502214047 | 46 | 26 | 0.0 | 2.0 | 0.00 | 0.00 | 0.00 | 50 | 1013.7 |
| 20260502213543 | 46 | 195 | 0.0 | 3.0 | 0.00 | 0.00 | 0.00 | 50 | 1013.8 |
| 20260502213041 | 46 | 62 | 2.0 | 5.0 | 0.00 | 0.00 | 0.00 | 49 | 1013.8 |
| 20260502212540 | 46 | 284 | 0.0 | 2.0 | 0.00 | 0.00 | 0.00 | 50 | 1013.7 |
| 20260502212037 | 46 | 121 | 0.0 | 9.0 | 0.00 | 0.00 | 0.00 | 49 | 1013.5 |
| 20260502211532 | 46 | 77 | 2.0 | 6.0 | 0.00 | 0.00 | 0.00 | 50 | 1013.7 |
| 20260502211030 | 46 | 112 | 2.0 | 4.0 | 0.00 | 0.00 | 0.00 | 51 | 1013.7 |
| 20260502210526 | 46 | 295 | 1.0 | 5.0 | 0.00 | 0.00 | 0.00 | 50 | 1013.8 |
| 20260502210024 | 46 | 91 | 5.0 | 8.0 | 0.00 | 0.00 | 0.00 | 52 | 1013.7 |
| 20260502205520 | 47 | 347 | 2.0 | 6.0 | 0.00 | 0.00 | 0.00 | 47 | 1013.7 |
| 20260502205017 | 47 | 70 | 5.0 | 6.0 | 0.00 | 0.00 | 0.00 | 50 | 1013.7 |
| 20260502204514 | 47 | 18 | 3.0 | 5.0 | 0.00 | 0.00 | 0.00 | 47 | 1013.5 |
| 20260502204012 | 47 | 56 | 4.0 | 4.0 | 0.00 | 0.00 | 0.00 | 50 | 1013.6 |
| 20260502203509 | 47 | 318 | 2.0 | 11.0 | 0.00 | 0.00 | 0.00 | 45 | 1013.8 |
| 20260502203006 | 48 | 356 | 4.0 | 13.0 | 0.00 | 0.00 | 0.00 | 42 | 1013.6 |
| 20260502202502 | 49 | 170 | 2.0 | 5.0 | 0.00 | 0.00 | 0.00 | 44 | 1013.6 |
| 20260502202000 | 48 | 250 | 2.0 | 4.0 | 0.00 | 0.00 | 0.00 | 46 | 1013.6 |
| 20260502201456 | 48 | 132 | 2.0 | 4.0 | 0.00 | 0.00 | 0.00 | 43 | 1013.7 |
| 20260502200953 | 47 | 290 | 2.0 | 4.0 | 0.00 | 0.00 | 0.00 | 43 | 1013.7 |
| 20260502200448 | 47 | 349 | 3.0 | 6.0 | 0.00 | 0.00 | 0.00 | 43 | 1013.6 |
| 20260502195946 | 47 | 355 | 4.0 | 10.0 | 0.00 | 0.00 | 0.00 | 48 | 1013.9 |
| 20260502195444 | 47 | 1 | 4.0 | 4.0 | 0.00 | 0.00 | 0.00 | 47 | 1013.9 |
| 20260502194940 | 48 | 318 | 7.0 | 9.0 | 0.00 | 0.00 | 0.00 | 45 | 1014.0 |
| 20260502194437 | 47 | 351 | 2.0 | 8.0 | 0.00 | 0.00 | 0.00 | 47 | 1014.0 |
| 20260502193932 | 48 | 299 | 3.0 | 6.0 | 0.00 | 0.00 | 0.00 | 45 | 1013.8 |
| 20260502193430 | 48 | 5 | 4.0 | 4.0 | 0.00 | 0.00 | 0.00 | 44 | 1014.1 |
| 20260502192925 | 47 | 335 | 3.0 | 10.0 | 0.00 | 0.00 | 0.00 | 45 | 1013.9 |
| 20260502192422 | 48 | 36 | 3.0 | 4.0 | 0.00 | 0.00 | 0.00 | 45 | 1013.9 |
| 20260502191919 | 48 | 22 | 2.0 | 6.0 | 0.00 | 0.00 | 0.00 | 46 | 1014.0 |
| 20260502191417 | 47 | 95 | 2.0 | 4.0 | 0.00 | 0.00 | 0.00 | 51 | 1014.1 |
| 20260502190914 | 46 | 9 | 4.0 | 8.0 | 0.00 | 0.00 | 0.00 | 45 | 1014.2 |
| 20260502190412 | 47 | 28 | 4.0 | 10.0 | 0.00 | 0.00 | 0.00 | 45 | 1014.1 |
| 20260502185908 | 48 | 352 | 6.0 | 11.0 | 0.00 | 0.00 | 0.00 | 46 | 1014.1 |
| 20260502185403 | 48 | 353 | 4.0 | 9.0 | 0.00 | 0.00 | 0.00 | 47 | 1014.1 |
| 20260502184900 | 48 | 230 | 0.0 | 9.0 | 0.00 | 0.00 | 0.00 | 47 | 1014.2 |
| 20260502184355 | 48 | 192 | 3.0 | 5.0 | 0.00 | 0.00 | 0.00 | 46 | 1014.1 |
| 20260502183853 | 47 | 11 | 3.0 | 10.0 | 0.00 | 0.00 | 0.00 | 44 | 1014.1 |
| 20260502183349 | 48 | 0 | 4.0 | 13.0 | 0.00 | 0.00 | 0.00 | 44 | 1014.3 |
| 20260502182844 | 47 | 13 | 3.0 | 6.0 | 0.00 | 0.00 | 0.00 | 47 | 1014.4 |
| 20260502182340 | 47 | 345 | 8.0 | 8.0 | 0.00 | 0.00 | 0.00 | 44 | 1014.2 |
| 20260502181836 | 47 | 269 | 2.0 | 9.0 | 0.00 | 0.00 | 0.00 | 48 | 1014.2 |
| 20260502181335 | 47 | 3 | 2.0 | 8.0 | 0.00 | 0.00 | 0.00 | 49 | 1014.2 |
| 20260502180833 | 47 | 23 | 2.0 | 12.0 | 0.00 | 0.00 | 0.00 | 47 | 1014.3 |
| 20260502180330 | 47 | 25 | 4.0 | 10.0 | 0.00 | 0.00 | 0.00 | 47 | 1014.3 |
| 20260502170249 | 46 | 353 | 5.0 | 6.0 | 0.00 | 0.00 | 0.00 | 50 | 1014.5 |
| 20260502164236 | 45 | 82 | 2.0 | 10.0 | 0.00 | 0.00 | 0.00 | 50 | 1014.6 |
| 20260502163731 | 45 | 234 | 3.0 | 4.0 | 0.00 | 0.00 | 0.00 | 54 | 1014.6 |
| 20260502163228 | 45 | 358 | 5.0 | 9.0 | 0.00 | 0.00 | 0.00 | 52 | 1014.7 |
| 20260502162725 | 46 | 338 | 5.0 | 6.0 | 0.00 | 0.00 | 0.00 | 54 | 1014.6 |
| 20260502162222 | 46 | 112 | 3.0 | 6.0 | 0.00 | 0.00 | 0.00 | 52 | 1014.8 |
| 20260502161719 | 47 | 91 | 2.0 | 10.0 | 0.00 | 0.00 | 0.00 | 51 | 1014.7 |
| 20260502161215 | 46 | 45 | 4.0 | 5.0 | 0.00 | 0.00 | 0.00 | 55 | 1014.6 |
| 20260502160714 | 46 | 77 | 2.0 | 8.0 | 0.00 | 0.00 | 0.00 | 51 | 1014.7 |
| 20260502160213 | 46 | 328 | 3.0 | 8.0 | 0.00 | 0.00 | 0.00 | 55 | 1014.6 |
| 20260502152132 | 46 | 331 | 7.0 | 10.0 | 0.00 | 0.00 | 0.00 | 54 | 1014.6 |
| 20260502151629 | 47 | 58 | 5.0 | 10.0 | 0.00 | 0.00 | 0.00 | 54 | 1014.5 |
| 20260502151126 | 46 | 77 | 6.0 | 11.0 | 0.00 | 0.00 | 0.00 | 59 | 1014.8 |
| 20260502150624 | 46 | 119 | 4.0 | 12.0 | 0.00 | 0.00 | 0.00 | 62 | 1014.7 |
| 20260502150120 | 45 | 331 | 10.0 | 11.0 | 0.00 | 0.00 | 0.00 | 60 | 1014.6 |
| 20260502130508 | 41 | 45 | 2.0 | 6.0 | 0.00 | 0.00 | 0.00 | 69 | 1014.3 |
| 20260502123451 | 39 | 13 | 2.0 | 4.0 | 0.00 | 0.00 | 0.00 | 71 | 1014.2 |
| 20260502122948 | 39 | 345 | 6.0 | 8.0 | 0.00 | 0.00 | 0.00 | 70 | 1014.3 |
| 20260502122444 | 39 | 29 | 2.0 | 4.0 | 0.00 | 0.00 | 0.00 | 70 | 1014.2 |
| 20260502121943 | 39 | 352 | 3.0 | 6.0 | 0.00 | 0.00 | 0.00 | 72 | 1014.0 |
| 20260502121439 | 38 | 151 | 3.0 | 5.0 | 0.00 | 0.00 | 0.00 | 72 | 1014.1 |
| 20260502120937 | 38 | 117 | 1.0 | 9.0 | 0.00 | 0.00 | 0.00 | 72 | 1014.1 |
| 20260502120433 | 38 | 334 | 4.0 | 6.0 | 0.00 | 0.00 | 0.00 | 72 | 1013.9 |
| 20260502115930 | 37 | 64 | 3.0 | 6.0 | 0.00 | 0.00 | 0.00 | 73 | 1013.8 |
| 20260502115427 | 37 | 16 | 2.0 | 4.0 | 0.00 | 0.00 | 0.00 | 74 | 1013.8 |
| 20260502114923 | 37 | 19 | 1.0 | 2.0 | 0.00 | 0.00 | 0.00 | 75 | 1013.7 |
| 20260502114420 | 37 | 331 | 0.0 | 3.0 | 0.00 | 0.00 | 0.00 | 75 | 1013.7 |
| 20260502113917 | 37 | 105 | 0.0 | 2.0 | 0.00 | 0.00 | 0.00 | 77 | 1013.7 |
| 20260502113415 | 36 | 9 | 0.0 | 3.0 | 0.00 | 0.00 | 0.00 | 79 | 1013.8 |
| 20260502112914 | 35 | 340 | 1.0 | 2.0 | 0.00 | 0.00 | 0.00 | 81 | 1013.7 |
| 20260502112411 | 35 | 151 | 1.0 | 3.0 | 0.00 | 0.00 | 0.00 | 82 | 1013.8 |
| 20260502111908 | 34 | 36 | 1.0 | 3.0 | 0.00 | 0.00 | 0.00 | 83 | 1013.6 |
| 20260502111405 | 34 | 30 | 2.0 | 2.0 | 0.00 | 0.00 | 0.00 | 84 | 1013.6 |
| 20260502110902 | 34 | 57 | 0.0 | 2.0 | 0.00 | 0.00 | 0.00 | 86 | 1013.6 |
| 20260502110400 | 33 | 75 | 1.0 | 2.0 | 0.00 | 0.00 | 0.00 | 87 | 1013.6 |
| 20260502105857 | 33 | 61 | 2.0 | 2.0 | 0.00 | 0.03 | 0.03 | 88 | 1013.6 |
| 20260502105354 | 33 | 89 | 0.0 | 2.0 | 0.00 | 0.03 | 0.03 | 88 | 1013.5 |
| 20260502104852 | 33 | 117 | 2.0 | 3.0 | 0.00 | 0.03 | 0.03 | 88 | 1013.7 |
| 20260502104349 | 32 | 139 | 2.0 | 2.0 | 0.00 | 0.03 | 0.03 | 89 | 1013.6 |
| 20260502103846 | 32 | 132 | 2.0 | 2.0 | 0.00 | 0.03 | 0.03 | 87 | 1013.4 |
| 20260502103344 | 33 | 132 | 3.0 | 3.0 | 0.00 | 0.03 | 0.03 | 87 | 1013.5 |
| 20260502102841 | 33 | 127 | 3.0 | 3.0 | 0.00 | 0.03 | 0.03 | 86 | 1013.7 |
| 20260502102337 | 33 | 126 | 2.0 | 2.0 | 0.00 | 0.03 | 0.03 | 86 | 1013.7 |
| 20260502101835 | 33 | 105 | 2.0 | 2.0 | 0.00 | 0.03 | 0.03 | 86 | 1013.5 |
| 20260502101333 | 34 | 138 | 0.0 | 2.0 | 0.00 | 0.03 | 0.03 | 87 | 1013.5 |
| 20260502100831 | 33 | 106 | 0.0 | 2.0 | 0.00 | 0.03 | 0.03 | 87 | 1013.5 |
| 20260502100330 | 33 | 265 | 1.0 | 2.0 | 0.00 | 0.03 | 0.03 | 88 | 1013.4 |
| 20260502091304 | 33 | 127 | 2.0 | 3.0 | 0.00 | 0.03 | 0.03 | 95 | 1013.5 |
| 20260502090801 | 33 | 106 | 1.0 | 2.0 | 0.00 | 0.03 | 0.03 | 95 | 1013.5 |
| 20260502090258 | 33 | 130 | 3.0 | 3.0 | 0.00 | 0.03 | 0.03 | 96 | 1013.5 |
| 20260502071159 | 33 | 122 | 2.0 | 2.0 | 0.00 | 0.03 | 0.03 | 97 | 1013.2 |
| 20260502070657 | 33 | 125 | 2.0 | 3.0 | 0.00 | 0.03 | 0.03 | 97 | 1013.5 |
| 20260502070154 | 34 | 134 | 2.0 | 3.0 | 0.00 | 0.03 | 0.03 | 97 | 1013.4 |
| 20260502065653 | 34 | 121 | 2.0 | 2.0 | 0.00 | 0.03 | 0.03 | 97 | 1013.5 |
| 20260502065150 | 34 | 128 | 2.0 | 2.0 | 0.00 | 0.03 | 0.03 | 97 | 1013.4 |
| 20260502064649 | 34 | 127 | 2.0 | 3.0 | 0.00 | 0.03 | 0.03 | 97 | 1013.7 |
| 20260502064145 | 34 | 107 | 1.0 | 3.0 | 0.00 | 0.03 | 0.03 | 97 | 1013.6 |
| 20260502063643 | 35 | 132 | 2.0 | 2.0 | 0.00 | 0.03 | 0.03 | 97 | 1013.5 |
| 20260502063141 | 35 | 117 | 2.0 | 2.0 | 0.00 | 0.03 | 0.03 | 97 | 1013.6 |
| 20260502062637 | 35 | 140 | 2.0 | 3.0 | 0.00 | 0.03 | 0.03 | 97 | 1013.9 |
| 20260502062135 | 35 | 140 | 2.0 | 3.0 | 0.00 | 0.03 | 0.03 | 97 | 1013.6 |
| 20260502061633 | 35 | 144 | 2.0 | 3.0 | 0.00 | 0.03 | 0.03 | 97 | 1013.5 |
| 20260502061131 | 35 | 129 | 2.0 | 2.0 | 0.00 | 0.03 | 0.03 | 97 | 1013.5 |
| 20260502060630 | 35 | 135 | 2.0 | 3.0 | 0.00 | 0.03 | 0.03 | 97 | 1013.6 |
| 20260502060127 | 35 | 143 | 2.0 | 3.0 | 0.00 | 0.03 | 0.03 | 97 | 1013.8 |
| 20260502055625 | 35 | 127 | 2.0 | 3.0 | 0.00 | 0.03 | 0.03 | 97 | 1013.7 |
| 20260502055123 | 35 | 122 | 3.0 | 3.0 | 0.00 | 0.03 | 0.03 | 97 | 1013.7 |
| 20260502054622 | 36 | 133 | 3.0 | 3.0 | 0.00 | 0.03 | 0.03 | 97 | 1013.8 |
| 20260502054118 | 36 | 137 | 2.0 | 3.0 | 0.00 | 0.03 | 0.03 | 97 | 1013.8 |
| 20260502053615 | 36 | 141 | 2.0 | 3.0 | 0.00 | 0.03 | 0.03 | 97 | 1013.8 |
| 20260502053113 | 37 | 136 | 2.0 | 3.0 | 0.00 | 0.03 | 0.03 | 97 | 1013.9 |
| 20260502052611 | 37 | 128 | 2.0 | 3.0 | 0.00 | 0.03 | 0.03 | 97 | 1013.9 |
| 20260502052109 | 37 | 137 | 2.0 | 3.0 | 0.00 | 0.03 | 0.03 | 97 | 1013.8 |
| 20260502051607 | 37 | 114 | 1.0 | 2.0 | 0.00 | 0.03 | 0.03 | 97 | 1013.9 |
| 20260502051105 | 37 | 115 | 2.0 | 3.0 | 0.00 | 0.03 | 0.03 | 97 | 1013.8 |
| 20260502050600 | 37 | 152 | 1.0 | 4.0 | 0.00 | 0.03 | 0.03 | 97 | 1013.9 |
| 20260502050057 | 38 | 131 | 2.0 | 3.0 | 0.02 | 0.03 | 0.03 | 97 | 1013.8 |
| 20260502045554 | 37 | 124 | 2.0 | 2.0 | 0.02 | 0.03 | 0.03 | 97 | 1013.9 |
| 20260502045051 | 38 | 130 | 2.0 | 3.0 | 0.00 | 0.03 | 0.03 | 97 | 1013.9 |
| 20260502044547 | 38 | 143 | 2.0 | 3.0 | 0.00 | 0.03 | 0.03 | 97 | 1013.8 |
| 20260502044044 | 38 | 156 | 2.0 | 3.0 | 0.00 | 0.03 | 0.03 | 97 | 1013.9 |
| 20260502043542 | 37 | 152 | 2.0 | 3.0 | 0.00 | 0.03 | 0.03 | 97 | 1013.9 |
| 20260502043038 | 37 | 145 | 2.0 | 3.0 | 0.00 | 0.03 | 0.03 | 97 | 1013.9 |
| 20260502042533 | 37 | 134 | 3.0 | 3.0 | 0.00 | 0.03 | 0.03 | 97 | 1013.9 |
| 20260502042031 | 37 | 130 | 2.0 | 2.0 | 0.00 | 0.03 | 0.03 | 96 | 1014.0 |
| 20260502041529 | 37 | 135 | 3.0 | 3.0 | 0.00 | 0.03 | 0.03 | 96 | 1013.9 |
| 20260502041025 | 36 | 135 | 2.0 | 3.0 | 0.00 | 0.03 | 0.03 | 96 | 1013.9 |
| 20260502040522 | 37 | 118 | 3.0 | 3.0 | 0.00 | 0.03 | 0.03 | 96 | 1013.7 |
| 20260502040019 | 37 | 124 | 2.0 | 2.0 | 0.00 | 0.03 | 0.03 | 96 | 1013.8 |
| 20260502035515 | 38 | 140 | 2.0 | 2.0 | 0.00 | 0.03 | 0.03 | 96 | 1013.6 |
| 20260502035012 | 38 | 104 | 2.0 | 2.0 | 0.00 | 0.03 | 0.03 | 96 | 1013.6 |
| 20260502034510 | 38 | 137 | 2.0 | 3.0 | 0.00 | 0.03 | 0.03 | 96 | 1013.8 |
| 20260502034009 | 38 | 153 | 2.0 | 3.0 | 0.00 | 0.03 | 0.03 | 96 | 1013.6 |
| 20260502033506 | 38 | 179 | 2.0 | 2.0 | 0.00 | 0.03 | 0.03 | 96 | 1013.5 |
| 20260502033003 | 38 | 139 | 2.0 | 2.0 | 0.00 | 0.03 | 0.03 | 96 | 1013.6 |